376  
ASUS41 KOKX 250214  
RWROKX  
 
REGIONAL WEATHER ROUNDUP  
NATIONAL WEATHER SERVICE NEW YORK NY  
1000 PM EDT FRI SEP 24 2021  
 
NOTE: "FAIR" INDICATES FEW OR NO CLOUDS BELOW 12,000 FEET WITH NO  
SIGNIFICANT WEATHER AND/OR S TO VISIBILITY
.  
 
NYZ071-072-176-178-NJZ106-104-250300-  
NEW YORK CITY METRO AREA  
 
CITY SKY/WX TMP DP RH WIND PRES REMARKS
 
CENTRAL PARK CLEAR 65 50 58 MISG 30.10R  
BRONX LEHMAN C N/A 64 52 63 NW3 N/A  
LAGUARDIA ARPT PTCLDY 69 49 48 NW6 30.06S  
QUEENS COLLEGE N/A 68 50 52 NW5 N/A  
KENNEDY INTL PTCLDY 69 49 48 NW8 30.08R  
BREEZY POINT N/A 66 N/A N/A NW5 N/A  
BROOKLYN COLL N/A 68 50 52 NW6 N/A  
STATEN ISLAND N/A 59 52 77 S1 N/A  
NEWARK/LIBERTY PTCLDY 67 51 56 W8 30.07R  
TETERBORO CLEAR 62 52 69 N5 30.06R  

 
 
NYZ177-179-078>081-250300-  
LONG ISLAND NEW YORK  
 
CITY SKY/WX TMP DP RH WIND PRES REMARKS
 
JONES BEACH N/A 68 N/A N/A NW5 N/A  
WANTAGH N/A 64 52 63 NW3 N/A  
HEMPSTEAD NOT AVBL  
MATINECOCK PT N/A 68 N/A N/A W10 N/A  
FARMINGDALE PTCLDY 65 51 60 N3 30.07R  
MACARTHUR/ISP PTCLDY 62 58 86 NW3 30.06S  
SHIRLEY CLOUDY 63 60 90 CALM 30.06S  
MT SINAI HARB N/A 64 N/A N/A W3 N/A  
WESTHAMPTON CLOUDY 62 61 96 CALM 30.07S  
EAST HAMPTON MOCLDY 62 61 97 CALM 30.06R  
SOUTHOLD N/A 63 59 88 SW2 N/A  
MONTAUK N/A 65 61 87 CALM 30.07S  

 
 
NYZ052-065-067-250300-  
HUDSON VALLEY  
 
CITY SKY/WX TMP DP RH WIND PRES REMARKS
 
WHITE PLAINS CLEAR 58 54 86 NW3 30.07R  
LARCHMONT HARB N/A 64 N/A N/A W1 N/A  
CROTON ON HUDS N/A 59 N/A N/A E3 N/A  
SOMERS N/A 55 54 94 CALM N/A  
BREWSTER N/A 50 50 100 N1 N/A  
NEWBURGH CLEAR 64 54 68 W7 30.07S  
MONTGOMERY CLEAR 53 51 93 CALM 30.07S  
OTISVILLE N/A 52 52 100 S1 N/A  
WARWICK N/A 54 54 100 W2 N/A  
SUFFERN N/A N/A N/A N/A SE1 N/A  
POUGHKEEPSIE CLEAR 55 54 96 CALM 30.06S FOG  
ALBANY PTCLDY 55 51 86 CALM 30.07S  

 
 
NJZ001-105-106-008-010-013-015-019>022-104-250300-  
NEW JERSEY  
 
CITY SKY/WX TMP DP RH WIND PRES REMARKS
 
NEWARK/LIBERTY PTCLDY 67 51 56 W8 30.07R  
TETERBORO CLEAR 62 52 69 N5 30.06R  
CALDWELL CLEAR 61 54 77 CALM 30.08S  
SOMERVILLE CLEAR 55 55 100 CALM 30.07R  
LINDEN FAIR 62 51 67 NW3 30.08R  
PERTH AMBOY N/A 64 N/A N/A W5 N/A  
SUSSEX CLEAR 54 53 97 CALM 30.10R  
ANDOVER N/A 56 54 93 CALM 30.09R  
TRENTON CLEAR 58 54 86 NW5 30.08S  
MILLVILLE CLEAR 54 52 93 CALM 30.09R  
ATLANTIC CITY PTCLDY 58 54 86 NW3 30.08R  
WRIGHTSTOWN CLEAR 56 52 86 CALM 30.08R  
TOMS RIVER NOT AVBL  
BELMAR CLEAR 60 55 83 NW3 30.09S  

 
 
PAZ047>061-062-071-250300-  
EASTERN PENNSYLVANIA  
 
CITY SKY/WX TMP DP RH WIND PRES REMARKS
 
PHILADELPHIA CLEAR 64 49 57 NW5 30.08S  
ALLENTOWN CLEAR 56 49 77 CALM 30.08S  
SCRANTON CLEAR 56 49 77 E7 30.08S  

 
 
CTZ002-004>006-009-010-012-RIZ004-006-007-MAZ004-011-015-250300-  
SOUTHERN NEW ENGLAND  
 
IN CT  
 
CITY SKY/WX TMP DP RH WIND PRES REMARKS
 
BRADLEY INTL PTCLDY 58 54 86 W5 30.06S  
HARTFORD CLEAR 62 59 90 CALM 30.05S  
DANBURY CLEAR 56 53 90 SW3 30.08S  
WTRBURY/OXFORD CLEAR 54 53 97 CALM 30.08S  
NORWALK HARBOR N/A 63 N/A N/A NW7 N/A  
BRIDGEPORT CLEAR 63 56 78 CALM 30.06S  
MERIDEN PTCLDY 60 57 89 CALM 30.06S  
NEW HAVEN CLEAR 63 59 87 N3 30.06S  
CHESTER FAIR 61 61 100 CALM 30.06S  
GROTON PTCLDY 63 59 87 CALM 30.05S  
WILLIMANTIC MOCLDY 62 60 93 CALM 30.06S  
 
IN RI  
 
CITY SKY/WX TMP DP RH WIND PRES REMARKS
 
PROVIDENCE MOCLDY 67 61 81 W5 30.05S  
BLOCK ISLAND MOCLDY 63 58 83 CALM 30.07R  
WESTERLY PTCLDY 59 59 100 CALM 30.06S  
 
IN MA  
 
CITY SKY/WX TMP DP RH WIND PRES REMARKS
 
BOSTON CLOUDY 73 52 47 W6 30.04R  
WORCESTER CLOUDY 63 58 83 W9 30.07S  
WESTFIELD CLEAR 56 55 97 CALM 30.06S  
PROVINCETOWN LGT RAIN 70 70 100 S7 30.05R  
NANTUCKET PTCLDY 72 69 90 SE13 30.04S  

 
 
ANZ330-335-338-340-345-350-353-355-250300-  
COASTAL MARINE OBSERVATIONS  
 
 
STATION/POSITION TIME SKY/WX TEMP WIND PRES VSBY WAVE
 
AIR SEA DIR/SP/G HT/PER  
(UTC) (F) (DEG/KT/KT) (MB) (MI) (FT/S)  
NY HARB ENTRANCE 0150 72 310/ 10/ 14 1017.3 4/ 8  
20 S FIRE ISLAND 0150 71 1017.4 4/ 9  
GREAT SOUTH BAY 0130 70 78 290/ 8/ 10 N/A  
23 SSW MONTAUK P 0150 68 69 270/ 6/ 8 1018.1 4/ 7  
15 E BARNEGAT LI 0156 72 N/A 4/ 8  
HUDSON CANYON 0150 71 74 340/ 8/ 10 1018.2 4/ 8  
KINGS POINT 0130 69 340/ 7/ 10 1019.0  
EXECUTION ROCKS 0145 68 270/ 6/ 10 N/A  
WESTERN LI SOUND 0130 69 310/ 8/ 10 N/A  
CENTRAL LI SOUND 0100 70 73 220/ 8/ 10 N/A 1/ 2  
ROBBINS REEF 0130 69 290/ 6/ 7 1018.0  

 
 
>>>>>>>>>>>>>>>>>>>>>>>>>>>> KEY <<<<<<<<<<<<<<<<<<<<<<<<<<<  
> <  
> SKY/WX - SKY CONDITION/PRESENT WEATHER <  
> TMP - TEMPERATURE IN FAHRENHEIT <  
> DP - DEW POINT IN FAHRENHEIT <  
> RH - RELATIVE HUMIDITY IN PERCENT <  
> WIND - DIRECTION (FROM) AND SPEED IN MPH <  
> PRES - MEAN SEA LEVEL PRESSURE (INCHES OF HG) <  
> WCI - WIND CHILL INDEX <  
> VSB - VISIBILITY IN MILES <  
> HX - HEAT INDEX <  
> TC - TEMPERATURE IN CELSIUS <  
> VRB - VARIABLE WIND DIRECTION <  
> <  
>>>>>>>>>>>>>>>>>>>>>>>>>>>> KEY <<<<<<<<<<<<<<<<<<<<<<<<<<<  
 
 
CLICK HERE TO GO TO PREVIOUS BULLETINS.

The Nexlab NY Page
The Nexlab NJ Page
The Nexlab CT Page Main Text Page